Regional Weather Roundup
Issued by NWS Northern Indiana

Home | Current Version | Previous Version | Text Only | Print | Product List | Glossary On
Versions: 1 2 3 4 5 6 7 8 9 10 11 12 13 14 15 16 17 18 19 20 21 22 23 24 25 26 27 28 29 30 31 32 33 34 35 36 37 38 39 40 41 42 43 44 45 46 47 48 49 50
000
ASUS43 KIWX 282010
RWRIWX

KIWX WEATHER ROUNDUP
NATIONAL WEATHER SERVICE NORTHERN INDIANA
300 PM EST SAT FEB 28 2015

NOTE: "FAIR" INDICATES FEW OR NO CLOUDS BELOW 12,000 FEET WITH NO
SIGNIFICANT WEATHER AND/OR OBSTRUCTIONS TO VISIBILITY.

* THESE STATIONS ARE NOT UNDER NWS QUALITY CONTROL. THEY ALSO MAY NOT
  REPORT WEATHER SUCH AS PRECIPITATION OR FOG.

INZ001>027-282100-
NORTHERN INDIANA

CITY           SKY/WX    TMP DP  RH WIND       PRES   REMARKS
GARY*          SUNNY     23  -2  33 S7        30.63F WCI  15
VALPARAISO     SUNNY     19   5  54 E8        30.61F WCI   9
MICHIGAN CITY* SUNNY     21  -8  27 S8        30.62F WCI  12
LAPORTE*       SUNNY     22   4  46 S5        30.61F WCI  16
KNOX*            N/A     21 -15  19 S5        30.61F WCI  15
SOUTH BEND     SUNNY     20   4  50 S7        30.63F WCI  11
ELKHART*       SUNNY     21  -2  35 S8        30.64F WCI  12
GOSHEN         SUNNY     22   5  48 SE9       30.62F WCI  12
MONTICELLO*    SUNNY     23   8  52 E8        30.60F WCI  14
LOGANSPORT*    SUNNY     23   7  50 E12       30.61F WCI  12
ROCHESTER*     SUNNY     27   7  43 E8        30.62F WCI  18
WARSAW*        SUNNY     23   5  46 E3        30.62F
ANGOLA*        SUNNY     18   3  53 SW8       30.62F WCI   7
FORT WAYNE     MOSUNNY   20   4  50 SE9       30.64F WCI   9
HUNTINGTON*    MOSUNNY   21  -1  37 S8        30.62F WCI  12
PERU/GRISSOM   SUNNY     22   8  54 E8        30.60F WCI  13
MARION*        PTSUNNY   22   4  46 SE9       30.61F WCI  12

$$
INZ028>050-282100-
CENTRAL INDIANA

CITY           SKY/WX    TMP DP  RH WIND       PRES   REMARKS
LAFAYETTE      SUNNY     25  10  53 E8        30.59F WCI  16
KOKOMO*        SUNNY     21   9  58 SE10      30.61F WCI  10
MUNCIE*        MOSUNNY   22   4  46 SE8       30.60F WCI  12
INDIANAPOLIS   PTSUNNY   25   7  46 E10       30.57F WCI  15

$$
MIZ043>046-050>051-056>058-064>065-071>073-077>080-282100-
SOUTHWEST LOWER MICHIGAN

CITY           SKY/WX    TMP DP  RH WIND       PRES   REMARKS
BATTLE CREEK   SUNNY     19   0  43 SW6       30.62F WCI  11
BENTON HARBOR  SUNNY     19   0  43 SE7       30.63F WCI  10
COLDWATER*     MOSUNNY   19   0  43 S3        30.62F
HILLSDALE*     MOSUNNY   19   2  47 S3        30.61F
HOLLAND        SUNNY     21  -1  38 SW7       30.63F WCI  12
GRAND RAPIDS   MOSUNNY   19   1  45 S6        30.63F WCI  11
KALAMAZOO      SUNNY     18   0  45 S6        30.63F WCI  10
STURGIS*       MOSUNNY   19   3  49 S5        30.62F WCI  13
THREE RIVERS*  FAIR      19   3  50 S3        30.64F

$$
OHZ001>008-015>018-024>025-282100-
NORTHWEST OHIO

CITY           SKY/WX    TMP DP  RH WIND       PRES   REMARKS
WAUSEON*       FAIR      18   1  49 S8        30.66F WCI   7
DEFIANCE       MOSUNNY   20   1  43 SE6       30.67F WCI  12
FINDLAY        CLOUDY    20   2  45 VRB6      30.66F WCI  12
TOLEDO EXPRESS SUNNY     18   0  45 E7        30.67F WCI   9
TOLEDO METCALF SUNNY     19   1  45 S6        30.69F WCI  11
LIMA           CLOUDY    21   2  43 E8        30.63F WCI  11

$$
AND FOR LAKE MICHIGAN COASTAL AND OPEN LAKE BUOY OBSERVATIONS

STATION/POSITION TEMP    WIND        PRES    VSBY  WAVE
                 AIR SEA DIR/SP/G                  HT/PER
                 (F)     (DEG/KT/KT) (MB)    (MI)  (FT/S)
CALUMET HARBOR           130/  5/  8 1035.4F
MICHIGAN CITY     19     140/  9/ 12   N/A
SAINT JOSEPH      22     170/  6/  9 1037.3F

$$
&&



USA.gov is the U.S. government's official web portal to all federal, state and local government web resources and services.